SCP
0 0 0 0 0 0 0 0 0 0 0 0 0 0 0 0 0 0 0 0 0 0 0 0 0 0 0 0 0 0 0 0 0 0 0 0 0 0 0 0 0 0 0
0 0 0 0 0 0 0 0 0 0 0 0 0 0 0 0 0 0 0 0 0 0 0 0 0 0 0 0 0 0 0 0 0 0 0 0 0 0 0 0 0 0 0
0 0 0 0 0 0 0 0 0 0 0 0 0 0 0 0 0 0 0 0 0 0 0 0 0 0 0 0 0 0 0 0 0 0 0 0 0 0 0 0 0 0 0
0 0 0 0 0 0 0 0 0 0 0 0 0 0 0 0 0 0 0 0 0 0 0 0 0 0 0 0 0 0 0 0 0 0 0 0 0 0 0 0 0 0 0
0 0 0 0 0 0 0 0 0 0 0 0 0 0 0 0 0 0 0 0 0 0 0 0 0 0 0 0 0 0 0 0 0 0 0 0 0 0 0 0 0 0 0
0 0 0 0 0 0 0 0 0 0 0 0 0 0 0 0 0 0 0 0 0 0 0 0 0 0 0 0 0 0 0 0 0 0 0 0 0 0 0 0 0 0 0
0 0 0 0 0 0 0 0 0 0 0 0 0 0 0 0 0 0 0 0 0 0 0 0 0 0 0 0 0 0 0 0 0 0 0 0 0 0 0 0 0 0 0
0 0 0 0 0 0 0 0 0 0 0 0 0 0 0 0 0 0 0 0 0 0 0 0 0 0 0 0 0 0 0 0 0 0 0 0 0 0 0 0 0 0 0
0 0 0 0 0 0 0 0 0 0 0 0 0 0 0 0 0 0 0 0 0 0 0 0 0 0 0 0 0 0 0 0 0 0 0 0 0 0 0 0 0 0 0
0 0 0 0 0 0 0 0 0 0 0 0 0 0 0 0 0 0 0 0 0 0 0 0 0 0 0 0 0 0 0 0 0 0 0 0 0 0 0 0 0 0 0
0 0 0 0 0 0 0 0 0 0 0 0 0 0 0 0 0 0 0 0 0 0 0 0 0 0 0 0 0 0 0 0 0 0 0 0 0 0 0 0 0 0 0
0 0 0 0 0 0 0 0 0 0 0 0 0 0 0 0 0 0 0 0 0 0 0 0 0 0 0 0 0 0 0 0 0 0 0 0 0 0 0 0 0 0 0
0 0 0 0 0 0 0 0 0 0 0 0 0 0 0 0 0 0 0 0 0 0 0 0 0 0 0 0 0 0 0 0 0 0 0 0 0 0 0 0 0 0 0
0 0 0 0 0 0 0 0 0 0 0 0 0 0 0 0 0 0 0 0 0 0 0 0 0 0 0 0 0 0 0 0 0 0 0 0 0 0 0 0 0 0 0
0 0 0 0 0 0 0 0 0 0 0 0 0 0 0 0 0 0 0 0 0 0 0 0 0 0 0 0 0 0 0 0 0 0 0 0 0 0 0 0 0 0 0
0 0 0 0 0 0 0 0 0 0 0 0 0 0 0 0 0 0 0 0 0 0 0 0 0 0 0 0 0 0 0 0 0 0 0 0 0 0 0 0 0 0 0
0 0 0 0 0 0 0 0 0 0 0 0 0 0 0 0 0 0 0 0 0 0 0 0 0 0 0 0 0 0 0 0 0 0 0 0 0 0 0 0 0 0 0
0 0 0 0 0 0 0 0 0 0 0 0 0 0 0 0 0 0 0 0 0 0 0 0 0 0 0 0 0 0 0 0 0 0 0 0 0 0 0 0 0 0 0
0 0 0 0 0 0 0 0 0 0 0 0 0 0 0 0 0 0 0 0 0 0 0 0 0 0 0 0 0 0 0 0 0 0 0 0 0 0 0 0 0 0 0
0 0 0 0 0 0 0 0 0 0 0 0 0 0 0 0 0 0 0 0 0 0 0 0 0 0 0 0 0 0 0 0 0 0 0 0 0 0 0 0 0 0 0
0 0 0 0 0 0 0 0 0 0 0 0 0 0 0 0 0 0 0 0 0 0 0 0 0 0 0 0 0 0 0 0 0 0 0 0 0 0 0 0 0 0 0
0 0 0 0 0 0 0 0 0 0 0 0 0 0 0 0 0 0 0 0 0 0 0 0 0 0 0 0 0 0 0 0 0 0 0 0 0 0 0 0 0 0 0
0 0 0 0 0 0 0 0 0 0 0 0 0 0 0 0 0 0 0 0 0 0 0 0 0 0 0 0 0 0 0 0 0 0 0 0 0 0 0 0 0 0 0
0 0 0 0 0 0 0 0 0 0 0 0 0 0 0 0 0 0 0 0 0 0 0 0 0 0 0 0 0 0 0 0 0 0 0 0 0 0 0 0 0 0 0
0 0 0 0 0 0 0 0 0 0 0 0 0 0 0 0 0 0 0 0 0 0 0 0 0 0 0 0 0 0 0 0 0 0 0 0 0 0 0 0 0 0 0
0 0 0 0 0 0 0 0 0 0 0 0 0 0 0 0 0 0 0 0 0 0 0 0 0 0 0 0 0 0 0 0 0 0 0 0 0 0 0 0 0 0 0
Wind_Speed_500mb
52 54 57 58 61 68 73 83 82 81 78 78 69 66 71 81 87 93 95 89 88 87 85 83 80 74 71 67 63 61 57 53 51 49 45 41 40 38 40 41 42 42 42
45 53 57 57 58 61 67 71 75 76 75 75 71 64 58 67 74 77 83 92 92 93 92 89 85 80 75 70 66 62 57 52 51 49 49 48 45 43 43 41 42 44 46
25 39 50 53 56 54 58 60 68 76 76 73 69 69 70 74 77 76 72 80 86 90 94 93 89 85 81 75 70 64 58 54 51 49 47 46 47 46 45 44 44 43 44
7 17 28 51 51 51 50 52 56 64 72 72 71 68 70 67 74 82 82 83 83 89 96 97 93 88 82 76 70 63 59 55 51 48 46 45 45 44 46 46 43 40 38
7 2 10 24 50 48 51 49 51 52 55 60 66 68 68 70 71 75 78 79 81 85 90 91 90 84 76 70 66 62 58 54 50 47 46 44 42 42 42 40 41 35 34
18 12 5 7 18 32 43 46 46 47 50 53 56 64 69 70 70 70 72 78 83 87 88 90 88 83 75 69 64 58 54 52 49 46 43 42 37 42 43 39 37 32 32
24 21 15 7 4 11 20 29 38 43 50 52 55 58 63 67 67 67 69 72 80 86 89 90 88 83 76 74 69 61 56 51 49 42 40 39 43 42 36 38 31 30 28
24 23 21 18 12 3 9 16 23 30 37 43 49 53 57 60 59 60 63 65 68 79 86 87 87 83 78 72 65 60 58 54 49 50 48 41 40 35 34 30 28 28 28
26 23 22 20 18 14 10 2 10 18 26 33 39 43 47 50 51 54 56 58 62 68 76 81 82 77 74 69 64 58 54 52 47 47 44 42 37 33 28 29 30 28 31
30 27 21 16 14 13 13 10 7 2 7 14 20 28 33 37 40 44 47 51 58 62 67 72 72 71 67 60 57 56 55 50 47 45 41 37 35 33 31 32 31 31 28
28 25 20 16 13 9 8 7 6 5 3 3 7 13 16 21 28 37 37 41 52 60 65 66 63 57 55 54 54 53 47 42 41 40 39 40 41 35 34 37 34 32 31
26 24 22 19 16 11 7 6 5 5 4 4 7 11 15 19 28 32 32 35 42 52 57 56 54 54 52 49 48 42 40 39 38 35 35 36 30 27 23 29 33 30 29
26 24 21 19 17 14 11 7 5 6 9 11 14 16 22 28 29 28 30 34 38 42 43 42 42 42 41 41 41 38 36 38 37 37 33 26 21 19 23 27 26 22 22
24 22 21 18 15 14 12 8 5 5 7 10 14 17 23 31 38 36 31 31 35 37 37 38 39 40 41 40 39 37 37 37 37 31 24 20 21 23 20 20 20 22 27
23 20 19 18 17 14 10 9 6 5 5 8 13 16 20 25 32 40 42 38 34 33 35 37 40 43 45 46 45 41 37 35 35 29 27 24 22 23 25 26 25 25 23
24 21 17 15 14 12 11 8 6 4 5 7 9 11 14 18 24 30 36 43 38 32 32 37 39 40 43 43 44 44 40 38 36 35 35 32 29 28 26 23 20 18 20
26 24 21 18 14 11 9 10 8 4 3 3 8 8 11 13 17 21 28 37 34 38 37 35 38 39 41 41 39 37 35 32 29 28 27 25 24 21 20 17 13 14 11
24 25 26 22 19 13 9 8 7 7 5 5 7 9 11 17 21 22 26 39 44 36 36 35 36 37 36 35 33 32 32 32 30 28 26 24 21 19 18 17 17 19 20
26 22 26 27 25 21 16 14 11 10 9 10 9 7 14 22 22 22 28 30 29 30 32 33 32 32 32 32 32 31 30 28 25 23 21 19 17 17 18 21 23 27 29
30 27 24 27 27 27 23 20 17 16 14 12 12 15 17 23 27 28 28 24 27 24 28 28 30 30 31 31 29 27 25 23 20 18 18 18 20 23 25 28 30 31 32
31 29 28 26 27 27 27 26 23 21 20 19 16 17 20 23 23 30 35 31 28 32 31 29 29 26 23 21 20 18 16 17 19 21 22 25 28 30 32 34 34 35 35
31 29 28 27 25 28 28 29 29 27 25 24 22 21 23 27 28 30 32 34 33 31 28 27 26 29 33 31 28 25 23 27 30 29 30 33 35 35 36 36 35 34 34
30 28 26 26 24 23 27 31 31 31 32 30 28 27 29 29 28 30 31 33 37 38 39 40 38 34 32 29 26 26 30 33 33 36 38 38 37 36 34 32 30 29 25
34 32 32 31 31 30 27 25 29 34 35 34 34 34 33 34 34 35 36 37 38 40 42 42 40 37 38 40 40 39 39 40 41 39 38 37 33 31 29 27 24 22 22
31 31 31 32 35 37 37 35 32 31 31 35 38 38 36 35 36 36 37 39 41 43 45 47 47 48 47 44 44 44 42 40 38 35 33 31 29 27 25 23 22 21 21
27 27 28 28 29 30 33 36 38 38 38 36 36 35 37 41 43 45 45 45 45 45 45 46 46 45 45 44 43 41 40 37 33 31 30 28 27 25 25 24 23 21 21
Wind_Direction_500mb
216 219 222 224 231 229 228 227 232 236 241 239 237 235 236 236 238 237 236 236 238 236 235 237 239 238 238 238 239 241 242 243 244 248 251 252 253 254 261 264 266 268 271
227 229 225 225 226 231 231 228 230 232 236 242 239 237 235 236 234 234 237 236 237 237 236 235 236 236 235 236 237 239 241 243 244 246 250 254 259 263 265 267 268 267 269
235 231 229 222 226 229 233 231 230 232 236 239 238 236 234 233 232 231 236 238 238 239 238 237 236 234 234 233 234 236 239 240 242 244 246 250 255 261 267 271 272 272 271
269 238 226 215 220 220 221 225 230 232 234 237 239 237 234 236 236 237 236 238 237 237 236 233 234 234 234 233 233 234 235 237 238 239 243 248 254 261 269 276 282 280 276
48 172 207 220 219 224 224 224 223 227 232 236 237 237 237 237 237 240 239 238 237 237 236 235 235 234 234 234 235 233 232 233 235 238 242 245 251 261 272 280 279 280 277
57 65 87 200 212 220 228 228 228 226 225 228 232 234 236 238 240 241 242 241 239 237 235 231 231 229 228 227 227 227 233 234 235 239 243 249 260 267 269 275 273 275 278
53 58 63 79 176 212 220 227 230 230 230 230 231 232 235 238 240 241 242 242 241 238 234 229 225 222 222 222 222 224 230 234 237 240 244 258 267 267 260 260 268 268 276
49 48 50 55 56 109 205 218 227 232 233 233 234 236 238 240 241 242 242 243 242 240 236 231 225 220 218 218 218 220 226 226 235 243 248 253 254 252 254 258 254 263 276
47 44 41 40 40 48 56 49 229 231 232 234 236 237 238 239 237 238 238 238 237 236 233 227 222 217 215 215 218 220 229 234 236 241 242 242 245 242 244 247 248 265 279
36 32 27 23 21 21 30 34 35 10 244 240 238 236 235 234 232 231 232 230 229 227 221 218 213 214 221 221 225 228 229 232 233 235 238 245 243 238 245 250 256 257 266
25 23 20 17 11 2 357 352 7 15 359 268 233 223 222 225 218 217 225 224 225 217 209 206 208 211 215 218 221 223 227 229 229 232 235 234 235 237 236 248 250 252 256
20 15 12 13 9 4 349 320 290 265 240 227 210 208 197 189 199 208 216 221 219 212 206 207 207 207 211 216 222 219 221 220 221 221 221 222 228 237 238 243 252 252 253
13 8 12 10 5 1 350 329 283 249 235 227 215 201 191 186 192 195 198 201 203 204 208 208 209 213 213 211 216 213 209 214 213 214 217 222 224 217 221 231 239 247 252
357 1 3 3 3 359 354 340 315 254 232 231 230 225 213 203 201 202 208 205 205 204 203 201 202 203 205 206 199 201 206 211 214 218 215 209 212 217 217 223 241 249 251
346 345 351 353 351 351 346 339 336 317 262 241 235 230 230 223 213 211 209 213 215 205 199 197 194 196 197 199 200 201 203 206 207 213 219 218 211 221 241 259 267 246 247
328 329 328 333 338 341 337 323 321 303 269 251 244 231 229 220 210 207 208 209 212 212 198 192 192 192 194 192 193 194 199 200 201 207 215 227 236 241 245 249 244 237 242
303 309 310 306 314 316 323 335 319 312 231 229 223 218 214 196 184 185 195 194 189 198 197 194 195 192 191 191 194 197 200 199 201 205 209 209 210 209 217 229 238 247 257
310 290 291 291 286 287 301 293 288 303 290 201 188 184 172 167 165 171 154 167 185 200 208 203 197 194 193 192 189 185 184 184 182 181 184 190 196 207 221 237 252 264 270
320 301 277 279 279 271 269 269 269 262 261 250 222 192 177 166 177 179 182 191 195 194 192 193 193 190 186 183 181 177 175 174 177 183 191 202 218 236 252 261 266 271 274
305 307 292 272 268 269 265 258 258 260 253 237 226 222 214 199 192 183 194 201 200 202 188 182 179 175 173 171 172 175 179 187 196 207 222 236 249 260 267 271 272 273 274
300 297 291 281 265 260 258 259 252 245 244 246 237 225 217 220 213 203 203 208 197 189 188 182 177 175 175 175 181 191 205 220 233 242 249 257 264 270 272 273 274 273 273
294 291 285 283 273 260 256 253 253 251 247 240 234 231 230 227 219 214 212 212 209 205 199 197 196 194 197 200 205 211 221 236 245 254 262 267 271 272 273 273 271 269 270
289 284 279 275 277 272 262 255 252 250 251 250 244 236 230 234 229 229 224 219 217 212 212 215 215 216 222 232 241 242 246 253 256 258 263 267 269 269 266 261 259 260 262
292 284 274 268 268 268 268 264 259 254 251 248 246 244 239 239 239 234 231 228 225 224 222 222 227 231 236 243 249 251 253 257 262 264 263 263 259 254 250 247 244 248 260
291 286 282 276 269 265 264 261 254 251 250 249 248 246 245 241 238 236 233 233 231 228 227 229 234 240 246 250 253 255 257 258 258 255 251 248 244 240 236 238 247 257 262
291 287 281 276 273 270 267 264 262 258 255 250 245 241 242 242 240 238 238 238 240 242 243 244 246 248 250 251 252 253 254 253 249 242 237 232 230 232 238 243 248 252 256
Wind_Speed_850mb
52 54 57 58 61 68 73 83 82 81 78 78 69 66 71 81 87 93 95 89 88 87 85 83 80 74 71 67 63 61 57 53 51 49 45 41 40 38 40 41 42 42 42
45 53 57 57 58 61 67 71 75 76 75 75 71 64 58 67 74 77 83 92 92 93 92 89 85 80 75 70 66 62 57 52 51 49 49 48 45 43 43 41 42 44 46
25 39 50 53 56 54 58 60 68 76 76 73 69 69 70 74 77 76 72 80 86 90 94 93 89 85 81 75 70 64 58 54 51 49 47 46 47 46 45 44 44 43 44
7 17 28 51 51 51 50 52 56 64 72 72 71 68 70 67 74 82 82 83 83 89 96 97 93 88 82 76 70 63 59 55 51 48 46 45 45 44 46 46 43 40 38
7 2 10 24 50 48 51 49 51 52 55 60 66 68 68 70 71 75 78 79 81 85 90 91 90 84 76 70 66 62 58 54 50 47 46 44 42 42 42 40 41 35 34
18 12 5 7 18 32 43 46 46 47 50 53 56 64 69 70 70 70 72 78 83 87 88 90 88 83 75 69 64 58 54 52 49 46 43 42 37 42 43 39 37 32 32
24 21 15 7 4 11 20 29 38 43 50 52 55 58 63 67 67 67 69 72 80 86 89 90 88 83 76 74 69 61 56 51 49 42 40 39 43 42 36 38 31 30 28
24 23 21 18 12 3 9 16 23 30 37 43 49 53 57 60 59 60 63 65 68 79 86 87 87 83 78 72 65 60 58 54 49 50 48 41 40 35 34 30 28 28 28
26 23 22 20 18 14 10 2 10 18 26 33 39 43 47 50 51 54 56 58 62 68 76 81 82 77 74 69 64 58 54 52 47 47 44 42 37 33 28 29 30 28 31
30 27 21 16 14 13 13 10 7 2 7 14 20 28 33 37 40 44 47 51 58 62 67 72 72 71 67 60 57 56 55 50 47 45 41 37 35 33 31 32 31 31 28
28 25 20 16 13 9 8 7 6 5 3 3 7 13 16 21 28 37 37 41 52 60 65 66 63 57 55 54 54 53 47 42 41 40 39 40 41 35 34 37 34 32 31
26 24 22 19 16 11 7 6 5 5 4 4 7 11 15 19 28 32 32 35 42 52 57 56 54 54 52 49 48 42 40 39 38 35 35 36 30 27 23 29 33 30 29
26 24 21 19 17 14 11 7 5 6 9 11 14 16 22 28 29 28 30 34 38 42 43 42 42 42 41 41 41 38 36 38 37 37 33 26 21 19 23 27 26 22 22
24 22 21 18 15 14 12 8 5 5 7 10 14 17 23 31 38 36 31 31 35 37 37 38 39 40 41 40 39 37 37 37 37 31 24 20 21 23 20 20 20 22 27
23 20 19 18 17 14 10 9 6 5 5 8 13 16 20 25 32 40 42 38 34 33 35 37 40 43 45 46 45 41 37 35 35 29 27 24 22 23 25 26 25 25 23
24 21 17 15 14 12 11 8 6 4 5 7 9 11 14 18 24 30 36 43 38 32 32 37 39 40 43 43 44 44 40 38 36 35 35 32 29 28 26 23 20 18 20
26 24 21 18 14 11 9 10 8 4 3 3 8 8 11 13 17 21 28 37 34 38 37 35 38 39 41 41 39 37 35 32 29 28 27 25 24 21 20 17 13 14 11
24 25 26 22 19 13 9 8 7 7 5 5 7 9 11 17 21 22 26 39 44 36 36 35 36 37 36 35 33 32 32 32 30 28 26 24 21 19 18 17 17 19 20
26 22 26 27 25 21 16 14 11 10 9 10 9 7 14 22 22 22 28 30 29 30 32 33 32 32 32 32 32 31 30 28 25 23 21 19 17 17 18 21 23 27 29
30 27 24 27 27 27 23 20 17 16 14 12 12 15 17 23 27 28 28 24 27 24 28 28 30 30 31 31 29 27 25 23 20 18 18 18 20 23 25 28 30 31 32
31 29 28 26 27 27 27 26 23 21 20 19 16 17 20 23 23 30 35 31 28 32 31 29 29 26 23 21 20 18 16 17 19 21 22 25 28 30 32 34 34 35 35
31 29 28 27 25 28 28 29 29 27 25 24 22 21 23 27 28 30 32 34 33 31 28 27 26 29 33 31 28 25 23 27 30 29 30 33 35 35 36 36 35 34 34
30 28 26 26 24 23 27 31 31 31 32 30 28 27 29 29 28 30 31 33 37 38 39 40 38 34 32 29 26 26 30 33 33 36 38 38 37 36 34 32 30 29 25
34 32 32 31 31 30 27 25 29 34 35 34 34 34 33 34 34 35 36 37 38 40 42 42 40 37 38 40 40 39 39 40 41 39 38 37 33 31 29 27 24 22 22
31 31 31 32 35 37 37 35 32 31 31 35 38 38 36 35 36 36 37 39 41 43 45 47 47 48 47 44 44 44 42 40 38 35 33 31 29 27 25 23 22 21 21
27 27 28 28 29 30 33 36 38 38 38 36 36 35 37 41 43 45 45 45 45 45 45 46 46 45 45 44 43 41 40 37 33 31 30 28 27 25 25 24 23 21 21
Wind_Direction_850mb
216 219 222 224 231 229 228 227 232 236 241 239 237 235 236 236 238 237 236 236 238 236 235 237 239 238 238 238 239 241 242 243 244 248 251 252 253 254 261 264 266 268 271
227 229 225 225 226 231 231 228 230 232 236 242 239 237 235 236 234 234 237 236 237 237 236 235 236 236 235 236 237 239 241 243 244 246 250 254 259 263 265 267 268 267 269
235 231 229 222 226 229 233 231 230 232 236 239 238 236 234 233 232 231 236 238 238 239 238 237 236 234 234 233 234 236 239 240 242 244 246 250 255 261 267 271 272 272 271
269 238 226 215 220 220 221 225 230 232 234 237 239 237 234 236 236 237 236 238 237 237 236 233 234 234 234 233 233 234 235 237 238 239 243 248 254 261 269 276 282 280 276
48 172 207 220 219 224 224 224 223 227 232 236 237 237 237 237 237 240 239 238 237 237 236 235 235 234 234 234 235 233 232 233 235 238 242 245 251 261 272 280 279 280 277
57 65 87 200 212 220 228 228 228 226 225 228 232 234 236 238 240 241 242 241 239 237 235 231 231 229 228 227 227 227 233 234 235 239 243 249 260 267 269 275 273 275 278
53 58 63 79 176 212 220 227 230 230 230 230 231 232 235 238 240 241 242 242 241 238 234 229 225 222 222 222 222 224 230 234 237 240 244 258 267 267 260 260 268 268 276
49 48 50 55 56 109 205 218 227 232 233 233 234 236 238 240 241 242 242 243 242 240 236 231 225 220 218 218 218 220 226 226 235 243 248 253 254 252 254 258 254 263 276
47 44 41 40 40 48 56 49 229 231 232 234 236 237 238 239 237 238 238 238 237 236 233 227 222 217 215 215 218 220 229 234 236 241 242 242 245 242 244 247 248 265 279
36 32 27 23 21 21 30 34 35 10 244 240 238 236 235 234 232 231 232 230 229 227 221 218 213 214 221 221 225 228 229 232 233 235 238 245 243 238 245 250 256 257 266
25 23 20 17 11 2 357 352 7 15 359 268 233 223 222 225 218 217 225 224 225 217 209 206 208 211 215 218 221 223 227 229 229 232 235 234 235 237 236 248 250 252 256
20 15 12 13 9 4 349 320 290 265 240 227 210 208 197 189 199 208 216 221 219 212 206 207 207 207 211 216 222 219 221 220 221 221 221 222 228 237 238 243 252 252 253
13 8 12 10 5 1 350 329 283 249 235 227 215 201 191 186 192 195 198 201 203 204 208 208 209 213 213 211 216 213 209 214 213 214 217 222 224 217 221 231 239 247 252
357 1 3 3 3 359 354 340 315 254 232 231 230 225 213 203 201 202 208 205 205 204 203 201 202 203 205 206 199 201 206 211 214 218 215 209 212 217 217 223 241 249 251
346 345 351 353 351 351 346 339 336 317 262 241 235 230 230 223 213 211 209 213 215 205 199 197 194 196 197 199 200 201 203 206 207 213 219 218 211 221 241 259 267 246 247
328 329 328 333 338 341 337 323 321 303 269 251 244 231 229 220 210 207 208 209 212 212 198 192 192 192 194 192 193 194 199 200 201 207 215 227 236 241 245 249 244 237 242
303 309 310 306 314 316 323 335 319 312 231 229 223 218 214 196 184 185 195 194 189 198 197 194 195 192 191 191 194 197 200 199 201 205 209 209 210 209 217 229 238 247 257
310 290 291 291 286 287 301 293 288 303 290 201 188 184 172 167 165 171 154 167 185 200 208 203 197 194 193 192 189 185 184 184 182 181 184 190 196 207 221 237 252 264 270
320 301 277 279 279 271 269 269 269 262 261 250 222 192 177 166 177 179 182 191 195 194 192 193 193 190 186 183 181 177 175 174 177 183 191 202 218 236 252 261 266 271 274
305 307 292 272 268 269 265 258 258 260 253 237 226 222 214 199 192 183 194 201 200 202 188 182 179 175 173 171 172 175 179 187 196 207 222 236 249 260 267 271 272 273 274
300 297 291 281 265 260 258 259 252 245 244 246 237 225 217 220 213 203 203 208 197 189 188 182 177 175 175 175 181 191 205 220 233 242 249 257 264 270 272 273 274 273 273
294 291 285 283 273 260 256 253 253 251 247 240 234 231 230 227 219 214 212 212 209 205 199 197 196 194 197 200 205 211 221 236 245 254 262 267 271 272 273 273 271 269 270
289 284 279 275 277 272 262 255 252 250 251 250 244 236 230 234 229 229 224 219 217 212 212 215 215 216 222 232 241 242 246 253 256 258 263 267 269 269 266 261 259 260 262
292 284 274 268 268 268 268 264 259 254 251 248 246 244 239 239 239 234 231 228 225 224 222 222 227 231 236 243 249 251 253 257 262 264 263 263 259 254 250 247 244 248 260
291 286 282 276 269 265 264 261 254 251 250 249 248 246 245 241 238 236 233 233 231 228 227 229 234 240 246 250 253 255 257 258 258 255 251 248 244 240 236 238 247 257 262
291 287 281 276 273 270 267 264 262 258 255 250 245 241 242 242 240 238 238 238 240 242 243 244 246 248 250 251 252 253 254 253 249 242 237 232 230 232 238 243 248 252 256